Погода в Шудаяге

Россия / Республика Коми     63°31′42″N   53°36′15″E
темп.,
°C
ветер,
м/с
пор.,
м/с
влажн.,
%
обл.,
%
осадки,
мм/ч
давл.,
гПа
погр.,
м
12 августа, пт
пт1200:00+15юз31163100 0.0 1011285
03:00+14юз41170100 0.0 1010386
06:00+14зюз41188100 0.6 1009623
09:00+15зюз498969 1.3 1008663
12:00+17з4880100 0.6 10081013
15:00+18з587092 1.3 10081145
18:00+18зсз4106122 0.3 10081177
21:00+15сз3971100 0.5 1009564
13 августа, сб
сб1300:00+11сз41095100 2.2 1011614
03:00+9зсз310975 2.4 1013399
06:00+10з38925 0.0 1014378
09:00+14зсз59669 0.6 10131329
12:00+16зсз595379 0.7 10131966
15:00+15сз41147100 0.8 10152221
18:00+14зсз495088 0.0 10151570
21:00+10зсз396935 0.0 1017353
14 августа, вс
вс1400:00+10зсз310735 0.0 1017594
03:00+7зсз39865 0.0 1019399
06:00+9сз377459 0.0 1020455
09:00+11ссз455495 0.0 10211318
12:00+15сз364058 0.0 10201780
15:00+15ссз3643100 0.0 10211665
18:00+13с235198 0.0 1021121
21:00+8в117350 0.0 102210
15 августа, пн
пн1500:00+7ююз257479 0.0 102389
03:00+9зюз2665100 0.0 1023164
06:00+11зюз3968100 0.1 1023405
09:00+13зюз2769100 0.4 1022622
12:00+18з685258 0.0 10211410
15:00+18з595591 0.1 10201222
18:00+16з37627 0.0 1020636
21:00+11ссз23959 0.6 102258
16 августа, вт
вт1600:00+9ссз28965 0.0 1023170
03:00+6ссз279513 0.0 1025145
06:00+8ссз278911 0.0 1026241
09:00+14ссз35545 0.0 10261112
12:00+17ссз46355 0.0 10261612
15:00+19с46325 0.0 10261757
18:00+16ссв245024 0.0 102792
21:00+10ююв22616 0.0 102716